Regional Weather Roundup
Issued by NWS Raleigh/Durham, NC

Home | Current Version | Previous Version | Text Only | Print | Product List | Glossary On
Versions: 1 2 3 4 5 6 7 8 9 10 11 12 13 14 15 16 17 18 19 20 21 22 23 24 25 26 27 28 29 30 31 32 33 34 35 36 37 38 39 40 41 42 43 44 45 46 47 48 49 50
000
ASUS42 KRAH 202210
RWRRAH
NORTH CAROLINA WEATHER ROUNDUP
NATIONAL WEATHER SERVICE RALEIGH NC
600 PM EDT WED AUG 20 2014

NOTE: "FAIR" INDICATES FEW OR NO CLOUDS BELOW 12,000 FEET WITH NO
SIGNIFICANT WEATHER AND/OR OBSTRUCTIONS TO VISIBILITY.

NCZ001-053-055-056-065-067-202300-
WESTERN NORTH CAROLINA

CITY           SKY/WX    TMP DP  RH WIND       PRES   REMARKS
ASHEVILLE      CLOUDY    78  64  61 CALM      30.09R
JEFFERSON      PTSUNNY   77  61  56 W8        30.12S
MORGANTON      SUNNY     86  66  51 SW3       30.05R
HICKORY        SUNNY     86  65  49 W8        30.00F
RUTHERFORDTON  CLOUDY    82  68  63 W5        30.02R
MOUNT AIRY     LGT RAIN  85  73  67 CALM      30.01S
BOONE          SUNNY     78  61  55 NW9       30.13R
$$

NCZ021-022-025-041-071-084-088-202300-
CENTRAL NORTH CAROLINA

CITY           SKY/WX    TMP DP  RH WIND       PRES   REMARKS
CHARLOTTE      MOSUNNY   88  70  55 SW3       29.99R
GREENSBORO     PTSUNNY   87  70  56 W8        29.97F
WINSTON-SALEM  PTSUNNY   87  67  51 SW7       29.99S
RALEIGH-DURHAM TSTM      75  64  69 S10G58    29.99R VSB 1
FORT BRAGG     MOSUNNY   89  71  55 VRB1      29.95F HX  95
FAYETTEVILLE   MOSUNNY   90  71  53 S6        29.94F HX  96
BURLINGTON     PTSUNNY   87  69  54 S5        29.96F
LAURINBURG     MOSUNNY   88  74  63 SE6       29.95F HX  96
$$

NCZ011-015-027-028-043-044-047-080-103-202300-
NORTHEASTERN NORTH CAROLINA

CITY           SKY/WX    TMP DP  RH WIND       PRES   REMARKS
ROCKY MT-WILSO SUNNY     83  73  72 CALM      29.97F
GREENVILLE     SUNNY     86  72  62 NW5       29.99S
WASHINGTON     CLOUDY    86  71  60 CALM      29.97S
ELIZABETH CITY MOSUNNY   82  71  69 E6        29.98R
MANTEO         SUNNY     79  72  78 E7        29.98S
CAPE HATTERAS  SUNNY     82  72  71 NE5       29.97S
$$

NCZ078-087-090-091-093-098-101-202300-
SOUTHEASTERN NORTH CAROLINA

CITY           SKY/WX    TMP DP  RH WIND       PRES   REMARKS
LUMBERTON      SUNNY     85  77  77 SE6       29.95F HX  95
GOLDSBORO      MOSUNNY   89  75  63 S5        29.94F HX  98
KINSTON        MOSUNNY   88  72  58 E3        29.97F
KENANSVILLE    CLOUDY    83  73  72 CALM      29.98S
NEW BERN       CLOUDY    89  72  56 SW3       29.98S HX  96
CHERRY POINT   NOT AVBL
BEAUFORT       PTSUNNY   83  75  77 SW8       29.98R
JACKSONVILLE   CLOUDY    84  75  74 SW6       29.97S
WILMINGTON     CLOUDY    83  74  74 CALM      29.97F
$$



USA.gov is the U.S. government's official web portal to all federal, state and local government web resources and services.